Find NOAA 7

NORAD ID: 12553 Int'l Des: 1981-059 Owner: NOAA Country: US operational
LEOCIRCULARRETROGRADESSO

現在のビュー

3D地球を読み込み中...

NOAA 7について

説明を読み込み中...

次回通過

Passes for default location (London). Set your location on the main map for personalized predictions.

高度履歴

Loading altitude history...

軌道要素

1 12553U 81059A 26149.18418921 .00000035 00000-0 38771-4 0 9993
2 12553 98.7962 216.5024 0010749 327.0841 32.9664 14.17787448322058
Epoch: May 29, 2026 • Age: 20 hours

現在のステータス

高度 829.4 km
速度 7.44 km/s
衛星直下点 6.68°N, 42.9°W
打ち上げ日 Jun 23, 1981
運用期間 44.9 years
タイプ weather

技術仕様

分類 Payload
質量 685.00 kg
乾燥質量 685.00 kg
総質量 1418.00 kg
長さ 3.70 m
直径 1.90 m
スパン 4.90 m
形状 Box + Pan
製造者 RCA
バスタイプ Tiros N
フェーズステータス In Orbit
所有者/国 NOAA/US

Most Searched